{"data":{"norad_id":87164,"epoch":"2026-05-23T12:04:08.220288Z","epoch_age_seconds":214648,"freshness":"STALE","line1":"1 87164U          26143.50287292  .00001993  00000+0  40344-3 0  9996","line2":"2 87164  65.2023 217.2451 0112937 342.7411  16.9861 14.59956518659377","mean_motion":14.59956518,"eccentricity":0.0112937,"inclination_deg":65.2023,"raan_deg":217.2451,"arg_perigee_deg":342.7411,"mean_anomaly_deg":16.9861,"bstar":0.00040344,"rev_number":65937,"period_min":98.633074495442,"perigee_km":613.45154095691,"apogee_km":773.17724211812,"semimajor_km":7071.4513915375,"source":"CELESTRAK","updated_at":"2026-05-25T13:38:11.663396Z"}}